This demonstration page uses our WeatherBlox Daily Observations layout. Learn more.

Left ArrowRight Arrow

Hourly Observations for April 15, 2022

Temp ( °F °C ) Dew Point ( °F °C ) Humidity (%) Winds ( mph kmh ) Pressure ( in mb ) Visibility ( mi km ) Precip ( " mm )
12:52 am 00:52 Clear 50 10 27 -2.8 41 41 S 10 17 30.01 1016 10 16 0.00 0.00
1:52 am 01:52 Clear 49 9.4 28 -2.2 44 44 SSE 13 20 29.98 1015 10 16 0.00 0.00
2:52 am 02:52 Clear 49 9.4 28 -2.2 44 44 S 10 17 29.96 1014 10 16 0.00 0.00
3:52 am 03:52 Clear 49 9.4 29 -1.7 46 46 SSE 9 15 29.96 1015 10 16 0.00 0.00
4:52 am 04:52 Clear 47 8.3 31 -0.6 54 54 SSE 9 15 29.96 1015 10 16 0.00 0.00
5:52 am 05:52 Clear 47 8.3 32 0 56 56 SE 9 15 29.96 1014 10 16 0.00 0.00
6:52 am 06:52 Partly Cloudy 48 8.9 32 0 54 54 SE 9 15 29.93 1014 10 16 0.00 0.00
7:52 am 07:52 Cloudy 51 10.6 33 0.6 50 50 SSE 18 30 29.94 1014 10 16 0.00 0.00
8:47 am 08:47 Cloudy with Nearby Thunderstorms 48 9 37 3 66 66 SSE 16 26 29.96 1014 10 16 0.00 0.00
8:52 am 08:52 Cloudy with Nearby Thunderstorms 49 9.4 38 3.3 66 66 SSE 15 24 29.94 1014 10 16 0.01 0.25
9:02 am 09:02 Cloudy with Light Rain 49 9.4 39 3.9 69 69 S 13 20 29.97 1015 9 14 0.00 0.00
9:52 am 09:52 Cloudy 52 11.1 40 4.4 64 64 SE 15 24 29.91 1013 10 16 0.04 1.02
10:52 am 10:52 Partly Cloudy 56 13.3 39 3.9 53 53 SE 21 33 29.91 1013 10 16 0.00 0.00
11:52 am 11:52 Partly Cloudy 58 14.4 41 5 53 53 SSE 20 31 29.89 1012 10 16 0.00 0.00
12:52 pm 12:52 Cloudy 57 13.9 42 5.6 58 58 SSE 13 20 29.88 1012 10 16 0.00 0.00
12:55 pm 12:55 Cloudy with Thunderstorms 57 13.9 42 5.6 58 58 SSE 13 20 29.88 1012 10 16 0.00 0.00
1:36 pm 13:36 Cloudy with Nearby Thunderstorms 52 11.1 45 7.2 77 77 ESE 7 11 29.90 1012 10 16 0.03 0.76
1:48 pm 13:48 Cloudy 54 12 46 8 77 77 ESE 8 13 29.88 1012 10 16 0.03 0.76
1:52 pm 13:52 Cloudy 53 11.7 45 7.2 74 74 SE 10 17 29.88 1012 10 16 0.03 0.76
2:24 pm 14:24 Partly Cloudy with Nearby Thunderstorms 56 13.3 46 7.8 70 70 SE 15 24 29.86 1011 10 16 0.00 0.00
2:45 pm 14:45 Partly Cloudy 55 12.8 46 7.8 72 72 SE 12 19 29.85 1011 10 16 0.00 0.00
2:52 pm 14:52 Mostly Cloudy 55 12.8 46 7.8 72 72 ESE 10 17 29.84 1011 10 16 0.00 0.00
3:52 pm 15:52 Partly Cloudy 59 15 48 8.9 67 67 ESE 9 15 29.80 1009 10 16 0.00 0.00
4:52 pm 16:52 Cloudy 61 16.1 48 8.9 63 63 E 7 11 29.78 1009 10 16 0.00 0.00
5:52 pm 17:52 Cloudy 61 16.1 49 9.4 65 65 NE 5 7 29.79 1009 10 16 0.00 0.00
6:52 pm 18:52 Cloudy with Light Rain 59 15 50 10 72 72 NE 6 9 29.82 1010 10 16 0.00 0.00
7:52 pm 19:52 Partly Cloudy 57 13.9 49 9.4 74 74 E 7 11 29.82 1010 10 16 0.00 0.00
8:52 pm 20:52 Clear 56 13.3 49 9.4 77 77 E 6 9 29.84 1011 10 16 0.00 0.00
9:52 pm 21:52 Clear 55 12.8 49 9.4 80 80 NE 3 6 29.88 1012 10 16 0.00 0.00
10:52 pm 22:52 Cloudy 52 11.1 49 9.4 89 89 N 6 9 29.91 1013 10 16 0.00 0.00
11:52 pm 23:52 Clear 51 10.6 48 8.9 89 89 ENE 5 7 29.92 1013 10 16 0.00 0.00

Powered by AerisWeather